Weather History for False Pass, AK

Change the Weather History Date:

Friday, October 12, 2012

  Actual Average (PACD) Record (PACD)
Temperature  
Mean Temperature 46 °F 41 °F  
Max Temperature 41 °F 47 °F 53 °F (1993)
Min Temperature 42 °F 36 °F 24 °F (2000)
Degree Days  
Heating Degree Days 19 24  
Month to date heating degree days 267  
Since 1 July heating degree days 1618  
Cooling Degree Days 0    
Month to date cooling degree days  
Year to date cooling degree days  
Moisture  
Dew Point 42 °F    
Average Humidity 87    
Maximum Humidity 96    
Minimum Humidity 73    
Precipitation  
Precipitation 0.12 in 0.16 in 0.51 in (2005)
Month to date precipitation 1.87  
Year to date precipitation 29.34  
Snow  
Snow 0.00 in 0.00 in 0.30 in (2008)
Month to date snowfall 0.3  
Since 1 July snowfall 0.3  
Since 1 September snowfall 0.3  
Snow Depth -    
Sea Level Pressure  
Sea Level Pressure 29.35 in    
Wind  
Wind Speed - (North)    
Max Wind Speed -    
Max Gust Speed -    
Visibility 10 miles    
Events Rain    
T = Trace of Precipitation, MM = Missing Value Source: NWS Daily Summary

Daily Weather History Graph

Daily Weather History Graph

Search for Another Location

Airport:

Trip Planner

Search our weather history database for the weather conditions in past years. The results will help you decide how hot, cold, wet, or windy it might be!

Date:

Astronomy

Oct. 12, 2012 Rise Set
Actual Time 8:18 AM HADT 7:00 PM HADT
Civil Twilight 7:42 AM HADT 7:36 PM HADT
Nautical Twilight 7:00 AM HADT 8:18 PM HADT
Astronomical Twilight 6:18 AM HADT 9:00 PM HADT
Moon 4:50 AM HADT (10/12) 5:35 PM HADT (10/12)
Length of Visible Light 11h 54m
Length of Day
10h 41m
Waning Crescent, 9% of the Moon is Illuminated
Oct 12
Waning Crescent
Oct 15
New
Oct 21
First Quarter
Oct 29
Full
Nov 6
Last Quarter

Hourly Weather History & Observations

Time (HADT) Temp. Dew Point Humidity Pressure Visibility Wind Dir Wind Speed Gust Speed Precip Events Conditions
12:01 AM 50.0 °F 44.1 °F 80% 29.48 in 10.0 mi North - - 0.00 in Rain Light Rain
1:01 AM 48.9 °F 44.1 °F 83% 29.48 in 10.0 mi North - - 0.00 in Rain Light Rain
2:01 AM 48.9 °F 43.0 °F 80% 29.48 in 10.0 mi North - - 0.02 in Rain Light Rain
3:01 AM 48.0 °F 44.1 °F 86% 29.46 in 10.0 mi North - - 0.02 in Rain Light Rain
3:40 AM 46.4 °F 44.6 °F 93% 29.18 in 10.0 mi North - - 0.01 in Rain Light Rain
4:01 AM 46.9 °F 45.0 °F 93% 29.44 in 10.0 mi North - - 0.01 in Rain Light Rain
4:08 AM 46.4 °F 44.6 °F 93% 29.17 in 10.0 mi North - - 0.00 in Rain Light Rain
5:01 AM 46.0 °F 45.0 °F 96% 29.43 in 10.0 mi North - - 0.01 in Rain Light Rain
5:50 AM 46.4 °F 44.6 °F 93% 29.15 in 10.0 mi North - - 0.00 in Rain Light Rain
6:01 AM 46.0 °F 45.0 °F 96% 29.42 in 10.0 mi North - - 0.00 in Rain Light Rain
6:50 AM 46.4 °F 44.6 °F 93% 29.15 in 10.0 mi North - - 0.00 in Rain Light Rain
7:01 AM 46.0 °F 44.1 °F 93% 29.43 in 10.0 mi North - - 0.00 in Rain Light Rain
7:50 AM 46.4 °F 44.6 °F 93% 29.15 in 10.0 mi North - - 0.02 in Rain Light Rain
8:01 AM 46.9 °F 45.0 °F 93% 29.42 in 10.0 mi North - - 0.02 in Rain Light Rain
9:01 AM 46.0 °F 45.0 °F 96% 29.43 in 10.0 mi North - - 0.02 in Rain Light Rain
10:01 AM 46.9 °F 45.0 °F 93% 29.44 in 10.0 mi North - - 0.01 in   Overcast
10:18 AM 46.4 °F 44.6 °F 93% 29.16 in 10.0 mi North - - 0.00 in Rain Light Rain
10:33 AM 46.4 °F 44.6 °F 93% 29.16 in 10.0 mi North - - 0.00 in Rain Light Rain
11:01 AM 46.9 °F 45.0 °F 93% 29.44 in 10.0 mi North - - 0.01 in Rain Light Rain
12:01 PM 46.9 °F 45.0 °F 93% 29.44 in 8.0 mi North - - 0.00 in   Overcast
12:50 PM 46.4 °F 44.6 °F 93% 29.16 in 8.0 mi North - - 0.00 in Rain Light Rain
1:01 PM 46.9 °F 44.1 °F 90% 29.44 in 9.0 mi North - - 0.00 in   Overcast
1:41 PM 46.4 °F 42.8 °F 87% 29.17 in 7.0 mi North - - N/A   Overcast
2:01 PM 46.0 °F 43.0 °F 89% 29.44 in 7.0 mi North - - N/A   Overcast
3:01 PM 46.0 °F 43.0 °F 89% 29.44 in 10.0 mi North - - N/A   Overcast
3:12 PM 46.4 °F 42.8 °F 87% 29.16 in 10.0 mi North - - N/A   Overcast
4:01 PM 46.0 °F 42.1 °F 86% 29.43 in 10.0 mi North - - N/A   Overcast
5:01 PM 45.0 °F 41.0 °F 86% 29.44 in 8.0 mi North - - N/A   Overcast
6:01 PM 45.0 °F 39.9 °F 82% 29.44 in 10.0 mi North - - N/A   Overcast
7:01 PM 44.1 °F 39.0 °F 82% 29.45 in 10.0 mi North - - N/A   Overcast
8:01 PM 44.1 °F 36.0 °F 73% 29.46 in 10.0 mi North - - N/A   Overcast
9:01 PM 43.0 °F 36.0 °F 76% 29.47 in 10.0 mi North - - N/A   Partly Cloudy
9:21 PM 42.8 °F 35.6 °F 76% 29.20 in 10.0 mi North - - N/A   Mostly Cloudy
10:01 PM 42.1 °F 36.0 °F 79% 29.48 in 10.0 mi North - - N/A   Mostly Cloudy
10:08 PM 42.8 °F 35.6 °F 76% 29.20 in 10.0 mi North - - N/A   Scattered Clouds
10:52 PM 42.8 °F 35.6 °F 76% 29.22 in 10.0 mi North - - N/A   Mostly Cloudy
11:01 PM 42.1 °F 35.1 °F 76% 29.50 in 10.0 mi North - - N/A   Mostly Cloudy